User: anonymous   Login
Location: Stigler
(35.2540°N, 95.1230°W)
Time: 18:29:05
(UTC-05:00)
Language:

Cosmos 1805 - Orbit

View from above orbital plane
View from above orbital plane
View from above satellite
View from above satellite

Ground track
Ground track

The orbit data is extracted from the following two-line orbital elements,

1 17191U 86097A   15212.49474662  .00001311  00000-0  78667-4 0  9996
2 17191 082.4799 345.0888 0004719 283.7843 076.2861 15.10125445559942
Epoch (UTC): 31 July 2015 11:52:26
Eccentricity: 0.0004719
inclination: 82.4799°
perigee height: 532 km
apogee height: 539 km
right ascension of ascending node: 345.0888°
argument of perigee: 283.7843°
revolutions per day: 15.10125445
mean anomaly at epoch: 76.2861°
orbit number at epoch: 55994

The dashed part of the orbit path shows where the satellite is in the earth's shadow,  

DLR